{"data":{"norad_id":60261,"epoch":"2026-05-25T03:59:40.900704Z","epoch_age_seconds":67430,"freshness":"FRESH","line1":"1 60261U 24131G   26145.16644561  .00001313  00000+0  56466-4 0  9995","line2":"2 60261  53.1603  57.4760 0001201  77.7616 282.3519 15.30192937103477","mean_motion":15.30192937,"eccentricity":0.0001201,"inclination_deg":53.1603,"raan_deg":57.476,"arg_perigee_deg":77.7616,"mean_anomaly_deg":282.3519,"bstar":5.6466e-5,"rev_number":10347,"period_min":94.105780073928,"perigee_km":474.41306822901,"apogee_km":476.05924846164,"semimajor_km":6853.3731583453,"source":"CELESTRAK","updated_at":"2026-05-25T13:38:19.199433Z"}}